When you browse on this site, cookies collect data to enhance your experience and personalize the content and advertising you see.
Visit our Privacy Policy to learn more. By continuing to use the site, you agree to this use of cookies and data.
  • In Schweiz
  • Länderverzeichnis
  • Für 7 Tage
  • Wassertemperatur
  • Wetterkarte
  • Widgets
  • user-avatar
    Anmelden

    Stündliche Wetter Tuson

    Heute, 5 Dezember, Donnerstag

    Zeit Temperatur Niederschläge Wind Luftdruck Luftfeuchtigkeit
    00:00 +17°C° 0 mm 2 m/S 696 mmHg 56%
    01:00 +17°C° 0 mm 2 m/S 696 mmHg 57%
    02:00 +17°C° 0 mm 2 m/S 696 mmHg 57%
    03:00 +17°C° 0 mm 2 m/S 696 mmHg 58%
    04:00 +16°C° 0 mm 2 m/S 696 mmHg 58%
    05:00 +16°C° 0 mm 1 m/S 696 mmHg 59%
    06:00 +16°C° 0 mm 1 m/S 697 mmHg 60%
    07:00 +16°C° 0 mm 1 m/S 697 mmHg 62%
    08:00 +16°C° 0 mm 2 m/S 697 mmHg 63%
    09:00 +17°C° 0 mm 2 m/S 698 mmHg 61%
    10:00 +17°C° 0 mm 2 m/S 698 mmHg 59%
    11:00 +18°C° 0 mm 2 m/S 699 mmHg 56%
    12:00 +19°C° 0 mm 2 m/S 698 mmHg 53%
    13:00 +19°C° 0 mm 3 m/S 698 mmHg 50%
    14:00 +20°C° 0 mm 3 m/S 697 mmHg 46%
    15:00 +19°C° 0 mm 2 m/S 698 mmHg 48%
    16:00 +19°C° 0 mm 2 m/S 698 mmHg 49%
    17:00 +18°C° 0 mm 2 m/S 698 mmHg 51%
    18:00 +18°C° 0 mm 1 m/S 698 mmHg 54%
    19:00 +16°C° 0 mm 1 m/S 698 mmHg 57%
    20:00 +16°C° 0 mm 1 m/S 698 mmHg 60%
    21:00 +15°C° 0 mm 1 m/S 698 mmHg 61%
    22:00 +15°C° 0 mm 1 m/S 698 mmHg 61%
    23:00 +15°C° 0 mm 1 m/S 699 mmHg 62%

    Morgen, 6 Dezember, Freitag

    Zeit Temperatur Niederschläge Wind Luftdruck Luftfeuchtigkeit
    00:00 +15°C° 0 mm 1 m/S 698 mmHg 62%
    01:00 +14°C° 0 mm 1 m/S 698 mmHg 63%
    02:00 +14°C° 0 mm 1 m/S 698 mmHg 63%
    03:00 +14°C° 0 mm 1 m/S 698 mmHg 63%
    04:00 +14°C° 0 mm 1 m/S 698 mmHg 63%
    05:00 +13°C° 0 mm 1 m/S 698 mmHg 63%
    06:00 +14°C° 0 mm 1 m/S 699 mmHg 62%
    07:00 +14°C° 0 mm 1 m/S 699 mmHg 62%
    08:00 +14°C° 0 mm 2 m/S 699 mmHg 61%
    09:00 +16°C° 0 mm 2 m/S 700 mmHg 55%
    10:00 +17°C° 0 mm 2 m/S 700 mmHg 48%
    11:00 +19°C° 0 mm 2 m/S 701 mmHg 42%
    12:00 +20°C° 0 mm 2 m/S 700 mmHg 39%
    13:00 +22°C° 0 mm 1 m/S 700 mmHg 35%
    14:00 +22°C° 0 mm 1 m/S 699 mmHg 32%
    15:00 +22°C° 0 mm 1 m/S 699 mmHg 35%
    16:00 +21°C° 0 mm 1 m/S 699 mmHg 39%
    17:00 +20°C° 0 mm 1 m/S 699 mmHg 42%
    18:00 +19°C° 0 mm 1 m/S 699 mmHg 45%
    19:00 +18°C° 0 mm 1 m/S 699 mmHg 48%
    20:00 +16°C° 0 mm 1 m/S 699 mmHg 51%
    21:00 +16°C° 0 mm 1 m/S 699 mmHg 53%
    22:00 +16°C° 0 mm 1 m/S 699 mmHg 54%
    23:00 +15°C° 0 mm 1 m/S 699 mmHg 56%

    übermorgen, 7 Dezember, Samstag

    Zeit Temperatur Niederschläge Wind Luftdruck Luftfeuchtigkeit
    00:00 +14°C° 0 mm 0 m/S 699 mmHg 58%
    01:00 +14°C° 0 mm 0 m/S 699 mmHg 59%
    02:00 +13°C° 0 mm 0 m/S 699 mmHg 61%
    03:00 +13°C° 0 mm 0 m/S 699 mmHg 62%
    04:00 +12°C° 0 mm 0 m/S 699 mmHg 63%
    05:00 +12°C° 0 mm 0 m/S 698 mmHg 64%
    06:00 +12°C° 0 mm 0 m/S 699 mmHg 63%
    07:00 +13°C° 0 mm 0 m/S 699 mmHg 63%
    08:00 +13°C° 0 mm 0 m/S 700 mmHg 62%
    09:00 +15°C° 0 mm 0 m/S 700 mmHg 55%
    10:00 +17°C° 0 mm 0 m/S 700 mmHg 47%
    11:00 +18°C° 0 mm 0 m/S 701 mmHg 40%
    12:00 +21°C° 0 mm 1 m/S 700 mmHg 37%
    13:00 +22°C° 0 mm 1 m/S 700 mmHg 35%
    14:00 +21°C° 0 mm 2 m/S 699 mmHg 32%
    15:00 +21°C° 0 mm 2 m/S 699 mmHg 35%
    16:00 +20°C° 0 mm 2 m/S 699 mmHg 38%
    17:00 +19°C° 0 mm 2 m/S 698 mmHg 41%
    18:00 +19°C° 0 mm 1 m/S 699 mmHg 44%
    19:00 +19°C° 0 mm 1 m/S 699 mmHg 48%
    20:00 +18°C° 0 mm 1 m/S 699 mmHg 51%
    21:00 +18°C° 0 mm 1 m/S 699 mmHg 51%
    22:00 +16°C° 0 mm 1 m/S 699 mmHg 52%
    23:00 +16°C° 0 mm 1 m/S 699 mmHg 52%

    8 Dezember, Sonntag

    Zeit Temperatur Niederschläge Wind Luftdruck Luftfeuchtigkeit
    00:00 +16°C° 0 mm 1 m/S 698 mmHg 52%
    01:00 +16°C° 0 mm 1 m/S 698 mmHg 52%
    02:00 +16°C° 0 mm 1 m/S 698 mmHg 53%
    03:00 +16°C° 0 mm 1 m/S 698 mmHg 54%
    04:00 +16°C° 0 mm 1 m/S 697 mmHg 54%
    05:00 +16°C° 0 mm 1 m/S 697 mmHg 55%
    06:00 +16°C° 0.1 mm 1 m/S 697 mmHg 57%
    07:00 +16°C° 0.1 mm 1 m/S 697 mmHg 58%
    08:00 +16°C° 0.1 mm 1 m/S 698 mmHg 60%
    09:00 +18°C° 0 mm 1 m/S 698 mmHg 57%
    10:00 +18°C° 0 mm 2 m/S 698 mmHg 54%
    11:00 +19°C° 0 mm 2 m/S 698 mmHg 51%
    12:00 +19°C° 0.1 mm 3 m/S 697 mmHg 53%
    13:00 +19°C° 0.1 mm 4 m/S 696 mmHg 54%
    14:00 +19°C° 0.1 mm 5 m/S 696 mmHg 56%
    15:00 +19°C° 0.8 mm 5 m/S 695 mmHg 59%
    16:00 +19°C° 0.8 mm 5 m/S 695 mmHg 62%
    17:00 +18°C° 0.8 mm 4 m/S 695 mmHg 65%
    18:00 +18°C° 0.4 mm 4 m/S 695 mmHg 68%
    19:00 +17°C° 0.4 mm 3 m/S 695 mmHg 71%
    20:00 +16°C° 0.4 mm 3 m/S 695 mmHg 74%
    21:00 +16°C° 0.2 mm 3 m/S 695 mmHg 75%
    22:00 +14°C° 0.2 mm 3 m/S 695 mmHg 77%
    23:00 +14°C° 0.2 mm 3 m/S 695 mmHg 78%

    9 Dezember, Montag

    Zeit Temperatur Niederschläge Wind Luftdruck Luftfeuchtigkeit
    00:00 +14°C° 0.1 mm 2 m/S 694 mmHg 76%
    01:00 +14°C° 0.1 mm 2 m/S 694 mmHg 75%
    02:00 +13°C° 0.1 mm 2 m/S 694 mmHg 73%
    03:00 +13°C° 0 mm 2 m/S 694 mmHg 73%
    04:00 +13°C° 0 mm 2 m/S 694 mmHg 72%
    05:00 +13°C° 0 mm 2 m/S 695 mmHg 72%
    06:00 +13°C° 0 mm 2 m/S 695 mmHg 72%
    07:00 +13°C° 0 mm 2 m/S 695 mmHg 72%
    08:00 +13°C° 0 mm 2 m/S 696 mmHg 73%
    09:00 +13°C° 0 mm 2 m/S 696 mmHg 67%
    10:00 +14°C° 0 mm 2 m/S 697 mmHg 61%
    11:00 +15°C° 0 mm 2 m/S 697 mmHg 56%
    12:00 +16°C° 0 mm 2 m/S 697 mmHg 51%
    13:00 +16°C° 0 mm 2 m/S 696 mmHg 47%
    14:00 +17°C° 0 mm 3 m/S 696 mmHg 43%
    15:00 +17°C° 0 mm 3 m/S 696 mmHg 45%
    16:00 +16°C° 0 mm 3 m/S 696 mmHg 47%
    17:00 +16°C° 0 mm 2 m/S 696 mmHg 49%
    18:00 +15°C° 0 mm 2 m/S 697 mmHg 52%
    19:00 +14°C° 0 mm 2 m/S 697 mmHg 56%
    20:00 +13°C° 0 mm 1 m/S 697 mmHg 60%
    21:00 +13°C° 0 mm 1 m/S 698 mmHg 62%
    22:00 +11°C° 0 mm 0 m/S 698 mmHg 64%
    23:00 +11°C° 0 mm 0 m/S 698 mmHg 66%

    10 Dezember, Dienstag

    Zeit Temperatur Niederschläge Wind Luftdruck Luftfeuchtigkeit
    00:00 +10°C° 0 mm 0 m/S 698 mmHg 66%
    01:00 +10°C° 0 mm 0 m/S 698 mmHg 67%
    02:00 +10°C° 0 mm 0 m/S 698 mmHg 68%
    03:00 +10°C° 0 mm 0 m/S 698 mmHg 68%
    04:00 +10°C° 0 mm 1 m/S 698 mmHg 68%
    05:00 +10°C° 0 mm 1 m/S 698 mmHg 68%
    06:00 +10°C° 0 mm 1 m/S 698 mmHg 66%
    07:00 +11°C° 0 mm 1 m/S 699 mmHg 65%
    08:00 +11°C° 0 mm 1 m/S 699 mmHg 63%
    09:00 +13°C° 0 mm 1 m/S 699 mmHg 55%
    10:00 +14°C° 0 mm 1 m/S 699 mmHg 46%
    11:00 +16°C° 0 mm 1 m/S 700 mmHg 37%
    12:00 +18°C° 0 mm 1 m/S 699 mmHg 33%
    13:00 +19°C° 0 mm 1 m/S 699 mmHg 30%
    14:00 +20°C° 0 mm 1 m/S 698 mmHg 26%
    15:00 +19°C° 0 mm 1 m/S 698 mmHg 30%
    16:00 +19°C° 0 mm 1 m/S 698 mmHg 34%
    17:00 +18°C° 0 mm 1 m/S 697 mmHg 38%
    18:00 +16°C° 0 mm 1 m/S 697 mmHg 40%
    19:00 +15°C° 0 mm 1 m/S 697 mmHg 42%
    20:00 +14°C° 0 mm 1 m/S 697 mmHg 45%
    21:00 +14°C° 0 mm 1 m/S 697 mmHg 45%
    22:00 +14°C° 0 mm 1 m/S 697 mmHg 46%
    23:00 +13°C° 0 mm 1 m/S 697 mmHg 46%
    Mehr zeigen